Showing default

CONNECTA IOT-9, 64534

Orbit data source: Space-Track

CONNECTA IOT-9, 64534 is a payload satellite owned by Plan-S (TR) in SSO that was launched on Mon, 23 Jun 2025 UTC via an FALCON 9 launch vehicle from the Air Force Western Test Range (AFWTR). Payload-class satellites include a variety of spacecraft equipped with specific instruments for various scientific and technological missions. These include communications satellites like Starlink; space stations such as the ISS; scientific satellites like the Hubble; Earth observation satellites from companies like Planet Labs, Umbra, and HawkEye 360; GPS; miniature CubeSats for education and research; and military/defense satellites.

Loading next visibility...
Identifier
64534, 2025-135G
Orbit
SSO
Country
Flag of TRTR / TURK
Related business
Manufacturer
Plan-S
Mission
Operational Commercial Communications
Bus & Motor
CUBESAT 6U, Unknown motor
Mass
10 kg wet, 10 kg dry
Launch date (UTC)
2025-06-23 (1 year ago)
Launch vehicle
FALCON 9
Launch site
Air Force Western Test Range (AFWTR)
Object type
Payload
Rocket body
Debris
Shape & HBR
Box, 2.2 m
Radar Cross Section
0.080 m², Medium (>0.1 m² and < 1m²)

Expand to show TLE details & history
Last TLE update: 15 hours ago

TLE from 15 hours ago
0 CONNECTA IOT-9
1 64534U 25135G   26171.28094476  .00002551  00000-0  12172-3 0  9994
2 64534  97.4765 286.1315 0006167 147.1250 213.0370 15.19968152 55292
Epoch: 2026-06-20T06:44Z
TLE epoch observation values (Epoch: 2026-06-20T06:44:33.627Z)
Latitude
0.00004°
Longitude
-83.50644°
Altitude
512.586 km
Speed
7.606 km/s
True Right ascension
19h 04m 31s
True Declination
0° 00' 00"
Sunlit
Object was in full shadow at epoch
Visualization orbit readout
Latitude
Unknown
Longitude
Unknown
Altitude
Unknown
Speed
Unknown
Apparent Right ascension
Unknown
Apparent Declination
Unknown
Sunlit
N/A
Visualization observer readout
Local Sidereal Time
08:41:59
Azimuth
Unknown
Elevation
Unknown
Doppler factor
Unknown
Orbital elements
Apogee altitude
507.149 km
Perigee altitude
498.662 km
Semi-major axis
6,881.043 km
Eccentricity
0.00062
Inclination
97.4765°
RAAN
286.1315°
Arg. of periapsis
147.125°
True anomaly
212.9985°
Mean anomaly
213.037°
Eccentric anomaly
213.01775°
Mean motion
3.80243 °/min
Orbital period
94.68 mins
BSTAR
0.00012172
Loading maneuver chart data...
Computing Atmospheric mass density...
Loading historical data...
Loading historical data...
Loading historical data...
Loading historical data...
Loading historical data...
Loading historical data...
Loading historical data...

Documentation

Showing up to 5 results
|